Regional Weather Roundup
Issued by NWS

Home | Current Version | Previous Version | Graphics & Text | Print | Product List | Glossary On
Versions: 1 2 3 4 5 6 7 8 9 10 11 12 13 14 15 16 17 18 19 20 21 22 23 24 25 26 27 28 29 30 31 32 33 34 35 36 37 38 39 40 41 42 43 44 45 46 47 48 49 50
944
ASUS45 KBOU 022307
RWRCO

WEATHER ROUNDUP FOR COLORADO
NATIONAL WEATHER SERVICE DENVER/BOULDER CO
400 PM MST FRI DEC 02 2016

NOTE: "FAIR" INDICATES FEW OR NO CLOUDS BELOW 12000 FEET WITH NO
SIGNIFICANT WEATHER AND/OR OBSTRUCTIONS TO VISIBILITY.

COZ001>005-013-030-031-030000-
...NORTHWEST COLORADO...

CITY           SKY/WX    TMP DP  RH WIND       PRES   REMARKS
CRAIG          CLOUDY    24  16  71 W6        30.14R WCI  17
HAYDEN         CLOUDY    21  12  68 W8        30.12R WCI  12
MEEKER         CLOUDY    24  16  71 NE10      30.11R WCI  14
MOUNT WERNER   NOT AVBL
STEAMBOAT SPGS CLOUDY    21  16  81 SW6       30.10R WCI  13
WALDEN           N/A     19  12  73 NW12      30.05R WCI   7
$$

COZ006>008-011-030000-
...WEST CENTRAL VALLEYS...

CITY           SKY/WX    TMP DP  RH WIND       PRES   REMARKS
GRAND JUNCTION CLOUDY    38  22  52 W3        30.09R
MONTROSE       CLOUDY    33  19  56 NW6       30.09R WCI  28
EAGLE          CLOUDY    32  18  55 CALM      30.07R
RIFLE          CLOUDY    33  19  56 NW13      30.09R WCI  24
DELTA          CLOUDY    38  20  49 SW5       30.09R
NUCLA          NOT AVBL
$$

COZ017>023-064>068-030000-
...SOUTHWEST COLORADO...

CITY           SKY/WX    TMP DP  RH WIND       PRES   REMARKS
DURANGO        CLOUDY    36  20  52 E8        29.99R
CORTEZ         MOCLDY    36  24  62 SW6       30.00R
PAGOSA SPRINGS FLURRIES  33  23  66 SE3       30.01R
TELLURIDE      CLOUDY    24  18  77 W9        30.00R WCI  14
WOLF CREEK PAS SNOW      14  14 100 S8        30.03R VSB 1/2 WCI   3
$$

COZ009-010-012-014-032>034-037-058>063-030000-
...CENTRAL COLORADO...

CITY           SKY/WX    TMP DP  RH WIND       PRES   REMARKS
ASPEN          LGT SNOW  26  19  74 NW3       30.01R
BUENA VISTA    LGT SNOW  20  17  86 CALM      30.08R
COPPER MTN     LGT SNOW  14   7  73 MISG      29.97R
BERTHOUD PASS  CLOUDY     3  -8  60 SE14      29.96R WCI -15
COTTONWOOD PAS LGT SNOW  19  18  93 E3        30.03R
GUNNISON       FAIR      30  20  66 N7        30.01R WCI  23
KREMMLING      LGT SNOW  30  21  69 NW3       30.06R
LEADVILLE      CLOUDY    13  10  88 S9        29.99R WCI   1
MONARCH PASS   CLOUDY    10   7  85 CALM      30.08S
SALIDA         CLOUDY    24  20  86 CALM      30.17S
SUNLIGHT       LGT SNOW N/A N/A N/A CALM      30.03R VSB 1
WILKERSON PASS LGT SNOW  12   9  85 SW3       30.03R
$$

COZ069>075-030000-
...SAN LUIS VALLEY/SANGRE DE CRISTO MOUNTAINS...

CITY           SKY/WX    TMP DP  RH WIND       PRES   REMARKS
ALAMOSA        CLOUDY    25  20  81 N5        30.04S WCI  19
LA VETA PASS   CLOUDY    16  12  86 CALM      30.02F
SAGUACHE       FLURRIES  28  21  74 S7        30.05S WCI  21
$$

COZ035-036-038>040-030000-
...NORTHERN COLORADO FRONT RANGE...

CITY           SKY/WX    TMP DP  RH WIND       PRES   REMARKS
DENVER INTL AP MOCLDY    31  21  66 E9        30.14S WCI  23
DMNS CITY PARK   N/A     32  20  61 E5G13     30.15R WCI  27
AURORA         MOCLDY    31  20  63 SE12      30.14S WCI  22
FRONT RANGE AP NOT AVBL
ERIE MUNI ARPT CLOUDY    32  26  78 E5        30.16S WCI  27
BOULDER MUN AP FLURRIES  30  27  86 CALM      30.16S
CENTENNIAL     FLURRIES  28  23  81 CALM      30.13S
BROOMFIELD     CLOUDY    30  28  93 NE5       30.15S WCI  25
FORT COLLINS   FAIR      30  21  69 SE7       30.18S WCI  23
LONGMONT       CLOUDY    33  26  76 CALM      30.19S
$$

COZ041-046-047-076>085-087-088-030000-
...PIKES PEAK/PALMER DIVIDE AND SOUTHERN FOOTHILLS...

CITY           SKY/WX    TMP DP  RH WIND       PRES   REMARKS
COLO. SPRINGS  CLOUDY    29  17  61 S13       30.15R WCI  19
A. F. ACADEMY  CLOUDY    26  20  79 S10       30.12R WCI  15
SCHRIEVER AFB  NOT AVBL
ELLICOTT       CLOUDY   N/A N/A N/A S12       30.14R
FALCON         CLOUDY    26  18  72 S7        30.14R WCI  18
FORT CARSON    CLOUDY    29  19  64 SE10      30.14R WCI  20
LIMON          CLOUDY    30  21  69 SE9       30.17S WCI  22
MONUMENT HILL  CLOUDY    23  18  80 S10       30.12S WCI  12
TRINIDAD       CLOUDY    35  17  47 SE6       30.12S WCI  30
$$

COZ042>045-048>051-090-091-030000-
...NORTHEAST COLORADO...

CITY           SKY/WX    TMP DP  RH WIND       PRES   REMARKS
GREELEY ARPT   FAIR      34  21  59 E7        30.19S WCI  28
AKRON          FAIR      35  18  49 SE7       30.18F WCI  29
BURLINGTON     CLOUDY    39  15  37 E5        30.20S
WRAY           NOT AVBL
STERLING       MOCLDY    36  23  60 CALM      30.19F
HOLYOKE        FAIR      41  23  48 CALM      30.21F
FORT MORGAN    MOCLDY    33  19  56 SE5       30.19F WCI  29
$$

COZ086-089-092>099-030000-
...SOUTHEAST COLORADO...

CITY           SKY/WX    TMP DP  RH WIND       PRES   REMARKS
PUEBLO         CLOUDY    34  18  52 CALM      30.17S
LA JUNTA       MOCLDY    37  14  38 NE5       30.18S
LAMAR          LGT RAIN  40  14  34 SE3       30.18R
SPRINGFIELD      N/A     39  11  31 E9        30.15S
$$




USA.gov is the U.S. government's official web portal to all federal, state and local government web resources and services.